Regional Weather Roundup
Issued by NWS

Home | Current Version | Previous Version | Graphics & Text | Print | Product List | Glossary On
Versions: 1 2 3 4 5 6 7 8 9 10 11 12 13 14 15 16 17 18 19 20 21 22 23 24 25 26 27 28 29 30 31 32 33 34 35 36 37 38 39 40 41 42 43 44 45 46 47 48 49 50
000
ASUS43 KMPX 060410
RWRMN
WEATHER ROUNDUP FOR MINNESOTA
NATIONAL WEATHER SERVICE TWIN CITIES/CHANHASSEN MN
1000 PM CST FRI FEB 05 2016


NOTE: "FAIR" INDICATES FEW OR NO CLOUDS BELOW 12,000 FEET WITH NO
SIGNIFICANT WEATHER AND/OR OBSTRUCTIONS TO VISIBILITY. N/A MEANS
CURRENT SKY AND/OR WEATHER CONDITIONS ARE NOT AVAILABLE.

MNZ060>063-068>070-060500-
   Twin Cities Metro

CITY           SKY/WX    TMP DP  RH WIND       PRES   REMARKS
TWIN CITIES    CLOUDY    26  21  81 SW7       30.19S WCI  18
ST PAUL        CLOUDY    26  21  81 SW6       30.20F WCI  19
CRYSTAL        CLOUDY    26  21  81 S6        30.17R WCI  19
BLAINE         MOCLDY    27  23  86 SW6       30.17R WCI  20
LAKEVILLE      CLOUDY    25  21  86 SW5       30.18F WCI  19
EDEN PRAIRIE   CLOUDY    26  21  81 SW9       30.18R WCI  17
SOUTH ST PAUL  CLOUDY    27  22  82 SW6       30.19R WCI  20
LAKE ELMO      CLOUDY    27  23  86 SW6       30.19R WCI  20
$$
MNZ001>005-007-008-013>017-022>024-027-028-060500-
   Northwest Minnesota

CITY           SKY/WX    TMP DP  RH WIND       PRES   REMARKS
BEMIDJI        CLOUDY    17  16  95 W6        30.07F FOG     WCI   8
HALLOCK        CLOUDY    12  10  92 SE8       30.06F WCI   1
ROSEAU         CLOUDY    19  14  79 SW6       30.06F WCI  11
WARROAD        CLOUDY    19  16  86 SW6       30.05F WCI  11
THIEF RVR FALL CLOUDY    12   9  85 S5        30.08F WCI   4
CROOKSTON      CLOUDY    14  12  92 S7        30.10F WCI   4
FOSSTON        CLOUDY     9   7  92 S6        30.09F FOG     WCI  -1
DETROIT LAKES  CLOUDY    23  21  93 SW7       30.12S FOG     WCI  15
MOORHEAD       CLEAR     16  14  93 SE7       30.13F FOG     WCI   6
PARK RAPIDS    CLOUDY    18  15  88 W6        30.09S WCI  10
MAHNOMEN       FOG       16  14  92 S5        30.10S VSB 1/4 WCI   8
$$
MNZ006-009>011-018-025>026-060500-
   North Central Minnesota

CITY           SKY/WX    TMP DP  RH WIND       PRES   REMARKS
BAUDETTE       CLOUDY    21  14  74 W5        30.04F WCI  15
FLAG ISLAND    CLOUDY    18  14  86 CALM      30.04F
INTL FALLS     CLOUDY    21  15  78 SW5       30.03F WCI  15
WASKISH        CLOUDY    18  16  93 SW7       30.07S WCI   8
LONGVILLE      CLOUDY    25  19  80 W8        30.09F WCI  16
GRAND RAPIDS   CLOUDY    25  18  74 NW7       30.08S WCI  17
CRANE LAKE     CLOUDY    21  16  79 S1        30.07F
ORR            CLOUDY    21  14  73 CALM      30.02F
COOK           CLOUDY    25  18  74 W6        30.05F WCI  18
WALKER         FAIR      18  16  91 SW5       30.09S WCI  11
$$
MNZ012-019>021-037-060500-
   Northeast Minnesota

CITY           SKY/WX    TMP DP  RH WIND       PRES   REMARKS
DULUTH         CLOUDY    23  13  65 SW13      30.07F WCI  11
ELY            CLOUDY    23  18  80 W3        30.03F
HIBBING        CLOUDY    23  15  71 S3        30.05F
EVELETH        CLOUDY    25  16  68 SW6       30.06F WCI  18
DULUTH HARBOR  CLOUDY    28  18  64 SW10      30.14S WCI  19
TWO HARBORS    CLOUDY    27  18  69 SW6       30.07S WCI  20
SILVER BAY     CLOUDY    25  16  68 S3        30.05F
GRAND MARAIS     N/A     25  15  66 W7        30.07S WCI  17
G MARAIS ARPRT CLOUDY    18  10  73 W6        29.99F WCI   9
$$
MNZ029>031-032-039>041-046>048-054>057-064-060500-
   West Central Minnesota

CITY           SKY/WX    TMP DP  RH WIND       PRES   REMARKS
FERGUS FALLS   FOG       19  16  86 CALM      30.18R VSB<1/4
WHEATON        CLOUDY    21  19  93 SW5       30.17S WCI  15
MORRIS         FOG       14  12  92 SW3       30.14F VSB<1/4
ALEXANDRIA     CLOUDY    24  21  88 NW7       30.13F WCI  16
ELBOW LAKE     FOG       16  14  95 S3        30.14S VSB<1/4
WADENA         CLOUDY    21  18  86 W6        30.11F WCI  14
GLENWOOD       CLOUDY    25  23  93 W7        30.14S WCI  17
APPLETON       CLEAR     19  18  93 SW3       30.17S FOG
BENSON         MOCLDY    19  18  93 CALM      30.17S
ORTONVILLE     CLEAR     21  18  86 SW5       30.16S WCI  15
MADISON        CLEAR     18  18 100 CALM      30.18S
WILLMAR        CLOUDY    28  25  86 W5        30.17S WCI  23
$$
MNZ033>034-036-042>043-049>051-058-059-060500-
   Central Minnesota

CITY           SKY/WX    TMP DP  RH WIND       PRES   REMARKS
ST CLOUD       CLOUDY    22  18  85 S6        30.15S WCI  14
SAUK CENTRE    CLOUDY    25  22  89 W8        30.15R WCI  16
PAYNESVILLE    CLOUDY    26  23  89 W9        30.16S WCI  17
AITKIN         CLOUDY    27  18  69 SW3       30.09F
PINE RIVER     CLOUDY    25  19  80 SW3       30.13S
BRAINERD       CLOUDY    24  18  77 W8        30.12S WCI  15
STAPLES        CLOUDY    23  19  86 W7        30.12S WCI  15
LONG PRAIRIE   CLOUDY    23  21  93 SW7       30.14R WCI  15
LITTLE FALLS   CLOUDY    25  19  80 W3        30.14S
LITCHFIELD     CLOUDY    25  23  93 CALM      30.16S
BUFFALO        MOCLDY    24  21  88 S5        30.18S WCI  18
MAPLE LAKE     MOCLDY    22  21  96 CALM      30.17S FOG
$$
MNZ037-044-045-052-053-060500-
   East Central Minnesota

CITY           SKY/WX    TMP DP  RH WIND       PRES   REMARKS
PRINCETON      CLOUDY    25  21  86 S5        30.15S WCI  19
MORA           CLOUDY    27  21  80 SW7       30.16S WCI  19
CAMBRIDGE      CLOUDY    27  18  69 CALM      30.15S
RUSH CITY      CLOUDY    25  20  82 SW7       30.17R WCI  17
MOOSE LAKE     CLOUDY    27  18  69 SW7       30.11S WCI  19
HINCKLEY       CLOUDY    27  21  80 SW7       30.14F WCI  19
CLOQUET        CLOUDY    25  14  63 SW7       30.09F WCI  17
MCGREGOR       CLOUDY    27  19  74 SW5       30.11S WCI  21
$$
MNZ071>073-080-081-089-090-097-098-060500-
   Southwest Minnesota

CITY           SKY/WX    TMP DP  RH WIND       PRES   REMARKS
MONTEVIDEO     PTCLDY    25  19  80 W5        30.19S WCI  19
GRANITE FALLS  MOCLDY    25  23  89 SW5       30.20S WCI  20
CANBY          CLEAR     24  23  93 SW8       30.18S WCI  16
MARSHALL       CLEAR     20  18  92 W9        30.18F WCI   9
REDWOOD FALLS  CLOUDY    27  23  85 W7        30.18S WCI  19
OLIVIA         CLOUDY    28  25  86 W5        30.17S WCI  23
PIPESTONE        N/A     21  16  79 CALM      30.18R
WINDOM         CLOUDY    27  25  93 W8        30.17S FOG     WCI  18
WORTHINGTON    CLOUDY    27  23  86 W9        30.18S WCI  17
JACKSON        CLOUDY    28  25  86 W7        30.18S FOG     WCI  21
TRACY          MOCLDY    26  24  90 W5        30.18R WCI  20
SLAYTON        PTCLDY    24  24 100 W6        30.18R WCI  16
$$
MNZ065>067-074>077-082>085-091>093-060500-
   South Central Minnesota

CITY           SKY/WX    TMP DP  RH WIND       PRES   REMARKS
MANKATO        CLOUDY    25  21  86 S10       30.18S WCI  15
NEW ULM        MOCLDY    25  23  93 SW5       30.18S FOG     WCI  19
ST JAMES       CLEAR     27  25  93 SW6       30.20S FOG     WCI  20
FAIRMONT       CLOUDY    27  21  80 S9        30.18F WCI  17
GLENCOE        CLEAR     23  22  96 CALM      30.18R
FARIBAULT      CLOUDY    25  21  86 S12       30.19F WCI  14
OWATONNA       CLOUDY    25  21  86 S15       30.18F WCI  12
WASECA         CLOUDY    25  23  93 S17       30.20F FOG     WCI  11
ALBERT LEA     CLOUDY    25  23  93 SW7       30.20F FOG     WCI  17
$$
MNZ078>079-086>088-094>096-060500-
   Southeast Minnesota

CITY           SKY/WX    TMP DP  RH WIND       PRES   REMARKS
ROCHESTER      CLOUDY    22  19  89 S14       30.19F WCI   9
RED WING       CLOUDY    25  19  80 SW9       30.20F WCI  15
STANTON        CLOUDY    27  22  83 SW15      30.18F WCI  15
DODGE CENTER   CLOUDY    21  19  93 SW16      30.18F WCI   7
WINONA         CLOUDY    27  19  74 SW7       30.26F WCI  19
AUSTIN         CLOUDY    21  21 100 S10       30.21F WCI  10
PRESTON        CLOUDY    22  18  86 SW12      30.23R WCI  10
$$
ABBREVIATIONS USED IN REMARKS
   TC - TEMPERATURES IN CELSIUS
  WCI - WIND CHILL INDEX
   HX - HEAT INDEX
  VSB - VISIBILITY
$$



USA.gov is the U.S. government's official web portal to all federal, state and local government web resources and services.